Paso Robles, CA

9:13 AM PST on February 26, 2017 (GMT -0800)
Paso Robles Municipal

Weather History for KPRB - January, 2013

Change the Weather History Date:

Wednesday, January 2, 2013

  Actual Average Record
Temperature  
Mean Temperature 44 °F 46 °F  
Max Temperature 60 °F 59 °F 76 °F (2001)
Min Temperature 28 °F 34 °F 16 °F (1976)
Degree Days  
Heating Degree Days 21 19  
Month to date heating degree days 43 38  
Since 1 July heating degree days 982 1162  
Cooling Degree Days 0 0  
Month to date cooling degree days 0 0  
Year to date cooling degree days 0 0  
Moisture  
Dew Point 32 °F    
Average Humidity 68    
Maximum Humidity 100    
Minimum Humidity 36    
Precipitation  
Precipitation 0.00 in 0.08 in 2.67 in (2006)
Month to date precipitation 0.00 0.17  
Year to date precipitation 0.00 0.17  
Since 1 July precipitation 3.21  
Sea Level Pressure  
Sea Level Pressure 30.19 in    
Wind  
Wind Speed 3 mph (ENE)    
Max Wind Speed 18 mph    
Max Gust Speed 21 mph    
Visibility 9 miles    
Events      
T = Trace of Precipitation, MM = Missing Value Source: NWS Daily Summary

Daily Weather History Graph

Daily Weather History Graph

Search for Another Location

Airport or City:

Trip Planner

Search our weather history database for the weather conditions in past years. The results will help you decide how hot, cold, wet, or windy it might be!

Date:

Astronomy

Jan. 02, 2013 Rise Set
Actual Time 7:12 AM PST 5:01 PM PST
Civil Twilight 6:44 AM PST 5:29 PM PST
Nautical Twilight 6:12 AM PST 6:01 PM PST
Astronomical Twilight 5:41 AM PST 6:32 PM PST
Moon 10:26 PM PST (1/2) 10:07 AM PST (1/2)
Length of Visible Light 10h 45m
Length of Day
9h 48m
Waning Gibbous, 74% of the Moon is Illuminated
Jan 2
Waning Gibbous
Jan 4
Last Quarter
Jan 11
New
Jan 18
First Quarter
Jan 26
Full

Hourly Weather History & Observations

Time (PST) Temp. Windchill Dew Point Humidity Pressure Visibility Wind Dir Wind Speed Gust Speed Precip Events Conditions
12:53 AM 33.1 °F - 30.0 °F 89% 30.23 in 10.0 mi Calm Calm - N/A   Clear
1:53 AM 32.0 °F - 30.0 °F 92% 30.23 in 10.0 mi Calm Calm - N/A   Clear
2:53 AM 30.0 °F - 28.9 °F 96% 30.24 in 7.0 mi Calm Calm - N/A   Clear
4:53 AM 28.9 °F 23.9 °F 27.0 °F 92% 30.20 in 7.0 mi NE 4.6 mph - N/A   Clear
5:53 AM 28.9 °F - 28.0 °F 96% 30.21 in 7.0 mi Calm Calm - N/A   Clear
6:53 AM 28.0 °F - 27.0 °F 96% 30.21 in 8.0 mi Calm Calm - N/A   Clear
7:53 AM 30.0 °F - 28.9 °F 96% 30.22 in 10.0 mi Calm Calm - N/A   Clear
8:53 AM 33.1 °F - 30.0 °F 89% 30.23 in 10.0 mi Calm Calm - N/A   Clear
9:53 AM 36.0 °F - 33.1 °F 89% 30.25 in 10.0 mi Calm Calm - N/A   Clear
10:53 AM 44.1 °F - 35.1 °F 71% 30.24 in 10.0 mi Calm Calm - N/A   Clear
11:53 AM 50.0 °F - 37.0 °F 61% 30.19 in 10.0 mi North 5.8 mph - N/A   Clear
12:53 PM 55.9 °F - 35.1 °F 45% 30.16 in 10.0 mi Calm Calm - N/A   Clear
1:53 PM 59.0 °F - 32.0 °F 36% 30.14 in 10.0 mi East 13.8 mph - N/A   Clear
2:53 PM 57.9 °F - 33.1 °F 39% 30.14 in 10.0 mi East 13.8 mph - N/A   Clear
3:53 PM 55.0 °F - 34.0 °F 45% 30.14 in 10.0 mi East 11.5 mph - N/A   Clear
4:53 PM 50.0 °F - 35.1 °F 57% 30.13 in 10.0 mi East 8.1 mph - N/A   Clear
5:53 PM 46.0 °F 44.8 °F 35.1 °F 66% 30.14 in 10.0 mi East 3.5 mph - N/A   Clear
6:53 PM 43.0 °F 39.5 °F 34.0 °F 71% 30.17 in 10.0 mi East 5.8 mph - N/A   Clear
7:53 PM 39.9 °F 36.7 °F 33.1 °F 77% 30.17 in 10.0 mi East 4.6 mph - N/A   Clear
8:53 PM 37.0 °F - 32.0 °F 82% 30.17 in 10.0 mi Calm Calm - N/A   Clear
9:53 PM 37.0 °F - 32.0 °F 82% 30.18 in 10.0 mi Calm Calm - N/A   Clear
10:53 PM 33.1 °F - 30.0 °F 89% 30.17 in 9.0 mi Calm Calm - N/A   Clear
11:53 PM 32.0 °F 28.7 °F 30.0 °F 92% 30.17 in 6.0 mi NE 3.5 mph - N/A   Clear